Location: La Pernelle
(49.6188°N, 1.2999°W)
Time: 11:01:13
(UTC+00:00)

Meteor 2-20 - Pass Details

Date: 31 October 2021
Orbit: 939 x 958 km, 82.5° (Epoch: 08 December)

Event Time Altitude Azimuth Distance (km) Brightness Sun altitude
Rises 06:12:16 0° 227° (SW) 3,604 7.1 -7.0°
Reaches altitude 10° 06:15:12 10° 239° (WSW) 2,661 6.4 -6.6°
Maximum altitude 06:20:12 26° 295° (WNW) 1,762 5.3 -5.8°
Drops below altitude 10° 06:25:14 10° 351° (N) 2,668 6.6 -5.0°
Sets 06:28:11 0° 4° (N) 3,615 7.3 -4.6°
